H1 CPF 2 NER 2024 4 30 9 121 01 glonass134 H2 1407501 9134 40315 2024 4 30 0 0 0 2024 5 3 23 45 0 900 1 1 0 0 0 1 H9 10 0 60430 0.00000 0 -22708848.522 5468799.148 10168869.160 10 0 60430 900.00000 0 -23774931.536 5604725.005 7219209.064 10 0 60430 1800.00000 0 -24459001.393 5770293.383 4128699.265 10 0 60430 2700.00000 0 -24750033.485 5911989.600 957600.830 10 0 60430 3600.00000 0 -24650085.140 5976082.908 -2232192.845 10 0 60430 4500.00000 0 -24174140.229 5911157.851 -5378383.188 10 0 60430 5400.00000 0 -23349423.145 5670554.950 -8419504.878 10 0 60430 6300.00000 0 -22214211.161 5214614.291 -11296148.990 10 0 60430 7200.00000 0 -20816196.155 4512624.044 -13952144.560 10 0 60430 8100.00000 0 -19210466.338 3544388.825 -16335673.281 10 0 60430 9000.00000 0 -17457195.051 2301349.498 -18400293.790 10 0 60430 9900.00000 0 -15619136.158 787205.736 -20105854.274 10 0 60430 10800.00000 0 -13759033.477 -981985.577 -21419275.040 10 0 60430 11700.00000 0 -11937054.739 -2978240.284 -22315185.866 10 0 60430 12600.00000 0 -10208358.822 -5162586.590 -22776406.434 10 0 60430 13500.00000 0 -8620898.432 -7486474.102 -22794261.741 10 0 60430 14400.00000 0 -7213549.566 -9893592.237 -22368728.002 10 0 60430 15300.00000 0 -6014644.511 -12322020.960 -21508408.046 10 0 60430 16200.00000 0 -5040967.436 -14706623.357 -20230338.683 10 0 60430 17100.00000 0 -4297251.745 -16981579.955 -18559635.588 10 0 60430 18000.00000 0 -3776197.011 -19082959.344 -16528984.335 10 0 60430 18900.00000 0 -3459001.547 -20951218.809 -14177988.813 10 0 60430 19800.00000 0 -3316385.261 -22533532.070 -11552390.688 10 0 60430 20700.00000 0 -3310057.260 -23785848.947 -8703175.764 10 0 60430 21600.00000 0 -3394564.582 -24674603.169 -5685584.796 10 0 60430 22500.00000 0 -3519443.094 -25177999.349 -2558047.819 10 0 60430 23400.00000 0 -3631579.491 -25286827.624 618937.786 10 0 60430 24300.00000 0 -3677685.076 -25004773.842 3783964.602 10 0 60430 25200.00000 0 -3606777.802 -24348213.967 6875886.521 10 0 60430 26100.00000 0 -3372568.986 -23345502.258 9834982.726 10 0 60430 27000.00000 0 -2935655.303 -22035783.371 12604093.307 10 0 60430 27900.00000 0 -2265424.762 -20467377.641 15129706.111 10 0 60430 28800.00000 0 -1341597.039 -18695806.026 17362975.385 10 0 60430 29700.00000 0 -155333.442 -16781535.679 19260654.022 10 0 60430 30600.00000 0 1290130.790 -14787538.359 20785922.639 10 0 60430 31500.00000 0 2979359.897 -12776761.460 21909100.401 10 0 60430 32400.00000 0 4885104.236 -10809615.118 22608224.353 10 0 60430 33300.00000 0 6969186.901 -8941578.342 22869486.060 10 0 60430 34200.00000 0 9183856.577 -7221022.681 22687516.521 10 0 60430 35100.00000 0 11473553.645 -5687343.384 22065512.735 10 0 60430 36000.00000 0 13777019.190 -4369475.883 21015201.815 10 0 60430 36900.00000 0 16029661.863 -3284860.030 19556641.305 10 0 60430 37800.00000 0 18166086.047 -2438896.335 17717857.299 10 0 60430 38700.00000 0 20122677.191 -1824918.243 15534325.006 10 0 60430 39600.00000 0 21840136.626 -1424682.996 13048299.689 10 0 60430 40500.00000 0 23265859.314 -1209361.658 10308009.143 10 0 60430 41400.00000 0 24356053.583 -1140987.415 7366722.141 10 0 60430 42300.00000 0 25077511.958 -1174301.305 4281710.401 10 0 60430 43200.00000 0 25408956.454 -1258916.860 1113124.481 10 0 60430 44100.00000 0 25341899.552 -1341710.829 -2077193.617 10 0 60430 45000.00000 0 24880982.665 -1369336.711 -5226936.370 10 0 60430 45900.00000 0 24043776.523 -1290752.068 -8274569.194 10 0 60430 46800.00000 0 22860051.308 -1059649.563 -11160554.948 10 0 60430 47700.00000 0 21370547.542 -636685.773 -13828538.114 10 0 60430 48600.00000 0 19625300.494 8589.435 -16226463.345 10 0 60430 49500.00000 0 17681590.256 896186.906 -18307604.707 10 0 60430 50400.00000 0 15601605.681 2034582.665 -20031484.236 10 0 60430 51300.00000 0 13449922.364 3420120.047 -21364661.270 10 0 60430 52200.00000 0 11290902.290 5036935.034 -22281377.231 10 0 60430 53100.00000 0 9186125.450 6857407.547 -22764043.949 10 0 60430 54000.00000 0 7191961.495 8843118.945 -22803567.263 10 0 60430 54900.00000 0 5357382.715 10946274.502 -22399501.223 10 0 60430 55800.00000 0 3722108.574 13111530.126 -21560031.760 10 0 60430 56700.00000 0 2315157.283 15278145.931 -20301792.086 10 0 60430 57600.00000 0 1153862.216 17382376.026 -18649515.298 10 0 60430 58500.00000 0 243391.105 19359994.518 -16635532.621 10 0 60430 59400.00000 0 -423215.301 21148852.596 -14299128.432 10 0 60430 60300.00000 0 -864490.104 22691360.903 -11685765.625 10 0 60430 61200.00000 0 -1109498.866 23936794.907 -8846197.043 10 0 60430 62100.00000 0 -1196356.180 24843328.721 -5835480.495 10 0 60430 63000.00000 0 -1170364.399 25379714.564 -2711916.328 10 0 60430 63900.00000 0 -1081853.843 25526539.545 464072.252 10 0 60430 64800.00000 0 -983815.753 25277009.099 3631095.259 10 0 60430 65700.00000 0 -929427.391 24637225.986 6727967.073 10 0 60430 66600.00000 0 -969572.753 23625954.150 9694871.260 10 0 60430 67500.00000 0 -1150462.231 22273877.804 12474498.006 10 0 60430 68400.00000 0 -1511450.363 20622386.407 15013133.791 10 0 60430 69300.00000 0 -2083142.614 18721935.386 17261683.760 10 0 60430 70200.00000 0 -2885870.363 16630049.513 19176608.546 10 0 60430 71100.00000 0 -3928598.327 14409050.267 20720758.723 10 0 60430 72000.00000 0 -5208311.206 12123599.653 21864091.673 10 0 60430 72900.00000 0 -6709906.969 9838160.509 22584257.584 10 0 60430 73800.00000 0 -8406603.651 7614476.881 22867043.233 10 0 60430 74700.00000 0 -10260845.630 5509177.620 22706664.439 10 0 60430 75600.00000 0 -12225674.795 3571601.676 22105900.431 10 0 60430 76500.00000 0 -14246512.672 1841935.055 21076065.909 10 0 60430 77400.00000 0 -16263282.143 349737.108 19636819.322 10 0 60430 78300.00000 0 -18212782.650 -887081.798 17815808.810 10 0 60430 79200.00000 0 -20031221.381 -1862787.469 15648160.311 10 0 60430 80100.00000 0 -21656795.345 -2583830.667 13175815.590 10 0 60430 81000.00000 0 -23032216.068 -3068335.870 10446731.221 10 0 60430 81900.00000 0 -24107069.986 -3345090.623 7513952.738 10 0 60430 82800.00000 0 -24839913.616 -3452077.521 4434581.423 10 0 60430 83700.00000 0 -25200013.134 -3434611.030 1268653.925 10 0 60430 84600.00000 0 -25168652.671 -3343158.808 -1922042.567 10 0 60430 85500.00000 0 -24739953.874 -3230941.387 -5075194.931 10 0 60431 0.00000 0 -23921170.378 -3151414.217 -8129202.304 10 0 60431 900.00000 0 -22732443.006 -3155741.444 -11024402.971 10 0 60431 1800.00000 0 -21206026.734 -3290371.537 -13704259.478 10 0 60431 2700.00000 0 -19385020.893 -3594820.142 -16116482.057 10 0 60431 3600.00000 0 -17321658.086 -4099756.678 -18214062.484 10 0 60431 4500.00000 0 -15075225.005 -4825477.482 -19956198.488 10 0 60431 5400.00000 0 -12709704.319 -5780831.286 -21309089.785 10 0 60431 6300.00000 0 -10291238.309 -6962642.884 -22246590.231 10 0 60431 7200.00000 0 -7885521.918 -8355659.076 -22750704.016 10 0 60431 8100.00000 0 -5555235.111 -9933018.457 -22811917.479 10 0 60431 9000.00000 0 -3357621.898 -11657224.178 -22429361.657 10 0 60431 9900.00000 0 -1342316.348 -13481577.571 -21610804.281 10 0 60431 10800.00000 0 450495.351 -15352011.309 -20372473.312 10 0 60431 11700.00000 0 1991502.493 -17209244.337 -18738717.327 10 0 60431 12600.00000 0 3263230.534 -18991167.785 -16741511.040 10 0 60431 13500.00000 0 4260498.113 -20635361.921 -14419817.012 10 0 60431 14400.00000 0 4990354.834 -22081639.371 -11818816.958 10 0 60431 15300.00000 0 5471505.695 -23274509.095 -8989028.308 10 0 60431 16200.00000 0 5733249.315 -24165459.531 -5985323.456 10 0 60431 17100.00000 0 5813976.819 -24714967.036 -2865870.614 10 0 60431 18000.00000 0 5759296.053 -24894147.357 308983.609 10 0 60431 18900.00000 0 5619860.939 -24685982.864 3477869.017 10 0 60431 19800.00000 0 5448997.354 -24086075.539 6579562.759 10 0 60431 20700.00000 0 5300225.093 -23102895.395 9554154.974 10 0 60431 21600.00000 0 5224779.282 -21757514.513 12344188.035 10 0 60431 22500.00000 0 5269234.455 -20082837.560 14895748.993 10 0 60431 23400.00000 0 5473330.132 -18122360.144 17159495.640 10 0 60431 24300.00000 0 5868088.548 -15928505.376 19091597.869 10 0 60431 25200.00000 0 6474303.261 -13560605.969 20654577.436 10 0 60431 26100.00000 0 7301462.412 -11082613.603 21818030.862 10 0 60431 27000.00000 0 8347152.872 -8560628.372 22559222.042 10 0 60431 27900.00000 0 9596972.069 -6060348.585 22863533.184 10 0 60431 28800.00000 0 11024953.642 -3644544.828 22724764.799 10 0 60431 29700.00000 0 12594492.072 -1370661.585 22145277.902 10 0 60431 30600.00000 0 14259730.764 711354.936 21135974.055 10 0 60431 31500.00000 0 15967358.634 2560912.787 19716111.638 10 0 60431 32400.00000 0 17658742.735 4148236.538 17912959.645 10 0 60431 33300.00000 0 19272309.758 5455374.075 15761293.356 10 0 60431 34200.00000 0 20746077.841 6476704.751 13302739.482 10 0 60431 35100.00000 0 22020232.817 7218926.396 10584981.630 10 0 60431 36000.00000 0 23039640.023 7700520.654 7660840.185 10 0 60431 36900.00000 0 23756184.543 7950718.425 4587243.902 10 0 60431 37800.00000 0 24130839.191 8008008.856 1424113.283 10 0 60431 38700.00000 0 24135370.577 7918255.396 -1766821.638 10 0 60431 39600.00000 0 23753608.650 7732499.859 -4923244.548 10 0 60431 40500.00000 0 22982223.854 7504549.403 -7983491.223 10 0 60431 41400.00000 0 21830977.247 7288451.144 -10887776.567 10 0 60431 42300.00000 0 20322431.893 7135964.173 -13579383.883 10 0 60431 43200.00000 0 18491137.362 7094138.940 -16005790.928 10 0 60431 44100.00000 0 16382322.095 7203109.073 -18119708.922 10 0 60431 45000.00000 0 14050149.691 7494191.210 -19880012.826 10 0 60431 45900.00000 0 11555613.819 7988374.627 -21252544.094 10 0 60431 46800.00000 0 8964161.631 8695265.172 -22210770.208 10 0 60431 47700.00000 0 6343146.672 9612528.006 -22736288.759 10 0 60431 48600.00000 0 3759218.843 10725851.947 -22819167.432 10 0 60431 49500.00000 0 1275760.797 12009435.764 -22458114.884 10 0 60431 50400.00000 0 -1049522.604 13426974.490 -21660481.013 10 0 60431 51300.00000 0 -3166762.476 14933102.832 -20442088.578 10 0 60431 52200.00000 0 -5035743.809 16475233.740 -18826901.342 10 0 60431 53100.00000 0 -6627309.934 17995713.987 -16846536.864 10 0 60431 54000.00000 0 -7924298.200 19434205.816 -14539634.882 10 0 60431 54900.00000 0 -8921971.246 20730194.825 -11951094.593 10 0 60431 55800.00000 0 -9627929.273 21825519.443 -9131196.361 10 0 60431 56700.00000 0 -10061510.253 22666817.015 -6134625.229 10 0 60431 57600.00000 0 -10252705.928 23207785.355 -3019415.087 10 0 60431 58500.00000 0 -10240641.148 23411166.539 154166.433 10 0 60431 59400.00000 0 -10071681.782 23250371.381 3324771.489 10 0 60431 60300.00000 0 -9797251.277 22710677.983 6431142.719 10 0 60431 61200.00000 0 -9471447.675 21789955.327 9413279.626 10 0 60431 62100.00000 0 -9148560.564 20498882.169 12213579.609 10 0 60431 63000.00000 0 -8880591.392 18860652.095 14777933.143 10 0 60431 63900.00000 0 -8714880.172 16910176.338 17056753.450 10 0 60431 64800.00000 0 -8691937.233 14692816.250 19005922.356 10 0 60431 65700.00000 0 -8843570.296 12262696.285 20587635.305 10 0 60431 66600.00000 0 -9191385.240 9680665.344 21771130.215 10 0 60431 67500.00000 0 -9745723.832 7011988.615 22533286.649 10 0 60431 68400.00000 0 -10505084.139 4323863.085 22859083.827 10 0 60431 69300.00000 0 -11456049.692 1682857.470 22741908.094 10 0 60431 70200.00000 0 -12573732.843 -847619.240 22183702.886 10 0 60431 71100.00000 0 -13822716.543 -3209717.003 21194956.709 10 0 60431 72000.00000 0 -15158458.031 -5353312.832 19794527.377 10 0 60431 72900.00000 0 -16529098.382 -7237857.727 18009303.657 10 0 60431 73800.00000 0 -17877604.369 -8833825.046 15873708.535 10 0 60431 74700.00000 0 -19144154.327 -10123698.872 13429051.512 10 0 60431 75600.00000 0 -20268668.510 -11102459.864 10722740.640 10 0 60431 76500.00000 0 -21193377.316 -11777546.986 7807368.221 10 0 60431 77400.00000 0 -21865318.036 -12168295.724 4739687.289 10 0 60431 78300.00000 0 -22238652.969 -12304875.922 1579498.851 10 0 60431 79200.00000 0 -22276708.614 -12226774.141 -1611527.657 10 0 60431 80100.00000 0 -21953647.113 -11980885.492 -4771076.178 10 0 60431 81000.00000 0 -21255696.661 -11619297.192 -7837422.270 10 0 60431 81900.00000 0 -20181886.625 -11196859.852 -10750661.322 10 0 60431 82800.00000 0 -18744254.592 -10768651.909 -13453900.264 10 0 60431 83700.00000 0 -16967515.641 -10387447.358 -15894387.300 10 0 60431 84600.00000 0 -14888207.543 -10101296.607 -18024555.686 10 0 60431 85500.00000 0 -12553348.377 -9951325.071 -19802959.787 10 0 60432 0.00000 0 -10018664.227 -9969844.232 -21195084.341 10 0 60432 900.00000 0 -7346461.275 -10178855.891 -22174011.777 10 0 60432 1800.00000 0 -4603236.190 -10589012.790 -22720933.387 10 0 60432 2700.00000 0 -1857121.398 -11199078.842 -22825498.036 10 0 60432 3600.00000 0 824724.125 -11995910.491 -22485991.258 10 0 60432 4500.00000 0 3378670.989 -12954958.339 -21709343.874 10 0 60432 5400.00000 0 5747016.474 -14041266.130 -20510971.785 10 0 60432 6300.00000 0 7880124.269 -15210923.350 -18914451.936 10 0 60432 7200.00000 0 9738219.948 -16412908.905 -16951042.460 10 0 60432 8100.00000 0 11292770.239 -17591247.357 -14659057.780 10 0 60432 9000.00000 0 12527391.783 -18687386.614 -12083111.889 10 0 60432 9900.00000 0 13438254.864 -19642697.240 -9273245.259 10 0 60432 10800.00000 0 14033968.553 -20400989.024 -6283952.649 10 0 60432 11700.00000 0 14334955.002 -20910940.100 -3173130.627 10 0 60432 12600.00000 0 14372341.588 -21128338.031 -964.833 10 0 60432 13500.00000 0 14186419.072 -21018040.150 3171222.210 10 0 60432 14400.00000 0 13824731.535 -20555572.342 6282141.456 10 0 60432 15300.00000 0 13339878.610 -19728300.368 9271704.431 10 0 60432 16200.00000 0 12787121.949 -18536125.361 12082165.970 10 0 60432 17100.00000 0 12221895.594 -16991674.523 14659222.048 10 0 60432 18000.00000 0 11697323.584 -15119978.433 16953043.064 10 0 60432 18900.00000 0 11261847.773 -12957647.249 18919224.128 10 0 60432 19800.00000 0 10957064.254 -10551578.228 20519635.322 10 0 60432 20700.00000 0 10815858.398 -7957245.999 21723156.482 10 0 60432 21600.00000 0 10860916.472 -5236643.898 22506282.941 10 0 60432 22500.00000 0 11103676.658 -2455958.983 22853590.621 10 0 60432 23400.00000 0 11543764.595 316925.522 22758051.004 10 0 60432 24300.00000 0 12168938.862 3014999.184 22221188.906 10 0 60432 25200.00000 0 12955551.019 5574660.062 21253078.437 10 0 60432 26100.00000 0 13869503.517 7938113.078 19872175.252 10 0 60432 27000.00000 0 14867667.898 10055531.917 18104986.102 10 0 60432 27900.00000 0 15899706.154 11886894.338 15985579.723 10 0 60432 28800.00000 0 16910220.503 13403413.527 13554946.328 10 0 60432 29700.00000 0 17841142.220 14588504.567 10860216.230 10 0 60432 30600.00000 0 18634259.108 15438244.182 7953751.380 10 0 60432 31500.00000 0 19233774.252 15961303.180 4892126.758 10 0 60432 32400.00000 0 19588786.459 16178353.549 1735021.498 10 0 60432 33300.00000 0 19655585.294 16120974.786 -1455957.925 10 0 60432 34200.00000 0 19399661.001 15830105.989 -4618498.021 10 0 60432 35100.00000 0 18797341.463 15354110.158 -7690816.324 10 0 60432 36000.00000 0 17836984.355 14746534.365 -10612890.718 10 0 60432 36900.00000 0 16519671.881 14063662.846 -13327653.560 10 0 60432 37800.00000 0 14859377.211 13361969.165 -15782125.045 10 0 60432 38700.00000 0 12882594.735 12695577.863 -17928461.767 10 0 60432 39600.00000 0 10627449.678 12113845.285 -19724898.575 10 0 60432 40500.00000 0 8142325.042 11659163.655 -21136564.592 10 0 60432 41400.00000 0 5484064.486 11365082.241 -22136157.414 10 0 60432 42300.00000 0 2715827.724 11254825.203 -22704462.880 10 0 60432 43200.00000 0 -95310.739 11340268.090 -22830711.427 10 0 60432 44100.00000 0 -2880918.398 11621414.888 -22512765.644 10 0 60432 45000.00000 0 -5573810.033 12086395.878 -21757137.200 10 0 60432 45900.00000 0 -8110593.265 12711984.277 -20578834.761 10 0 60432 46800.00000 0 -10434049.460 13464607.815 -19001047.763 10 0 60432 47700.00000 0 -12495252.540 14301810.638 -17054673.895 10 0 60432 48600.00000 0 -14255339.941 15174102.474 -14777700.956 10 0 60432 49500.00000 0 -15686864.792 16027116.146 -12214456.193 10 0 60432 50400.00000 0 -16774676.082 16803982.137 -9414738.442 10 0 60432 51300.00000 0 -17516293.269 17447820.387 -6432850.281 10 0 60432 52200.00000 0 -17921762.847 17904245.192 -3326548.956 10 0 60432 53100.00000 0 -18013005.355 18123778.810 -155936.021 10 0 60432 54000.00000 0 -17822682.220 18064073.521 3017693.499 10 0 60432 54900.00000 0 -17392631.392 17691850.163 6133021.137 10 0 60432 55800.00000 0 -16771937.972 16984472.865 9129872.786 10 0 60432 56700.00000 0 -16014720.727 15931094.763 11950363.110 10 0 60432 57600.00000 0 -15177726.652 14533326.949 14539996.031 10 0 60432 58500.00000 0 -14317833.373 12805402.350 16848701.554 10 0 60432 59400.00000 0 -13489562.746 10773826.614 18831790.441 10 0 60432 60300.00000 0 -12742708.505 8476528.836 20450809.636 10 0 60432 61200.00000 0 -12120176.171 5961545.182 21674282.921 10 0 60432 62100.00000 0 -11656124.948 3285287.369 22478323.152 10 0 60432 63000.00000 0 -11374489.172 510464.887 22847104.364 10 0 60432 63900.00000 0 -11287941.721 -2296255.784 22773184.196 10 0 60432 64800.00000 0 -11397343.886 -5066760.671 22257669.431 10 0 60432 65700.00000 0 -11691706.442 -7734064.721 21310219.882 10 0 60432 66600.00000 0 -12148665.708 -10234849.875 19948888.665 10 0 60432 67500.00000 0 -12735456.898 -12511860.288 18199799.631 10 0 60432 68400.00000 0 -13410346.184 -14516055.259 16096665.907 10 0 60432 69300.00000 0 -14124463.109 -16208429.556 13680156.620 10 0 60432 70200.00000 0 -14823957.534 -17561424.068 10997122.160 10 0 60432 71100.00000 0 -15452390.697 -18559866.336 8099691.612 10 0 60432 72000.00000 0 -15953259.073 -19201399.974 5044259.141 10 0 60432 72900.00000 0 -16272543.176 -19496383.666 1890379.059 10 0 60432 73800.00000 0 -16361171.443 -19467263.103 -1300408.212 10 0 60432 74700.00000 0 -16177292.399 -19147442.149 -4465794.927 10 0 60432 75600.00000 0 -15688256.007 -18579701.391 -7543943.829 10 0 60432 76500.00000 0 -14872217.517 -17814232.195 -10474718.532 10 0 60432 77400.00000 0 -13719293.361 -16906371.273 -13200879.998 10 0 60432 78300.00000 0 -12232218.213 -15914133.902 -15669223.457 10 0 60432 79200.00000 0 -10426474.092 -14895652.580 -17831631.655 10 0 60432 80100.00000 0 -8329885.458 -13906631.757 -19646022.390 10 0 60432 81000.00000 0 -5981697.424 -12997928.107 -21077171.078 10 0 60432 81900.00000 0 -3431176.398 -12213359.743 -22097392.220 10 0 60432 82800.00000 0 -735792.858 -11587837.338 -22687066.952 10 0 60432 83700.00000 0 2040936.605 -11145895.539 -22835007.575 10 0 60432 84600.00000 0 4831856.845 -10900685.375 -22538653.450 10 0 60432 85500.00000 0 7568730.230 -10853468.273 -21804096.285 10 0 60433 0.00000 0 10184834.385 -10993630.650 -20645936.371 10 0 60433 900.00000 0 12617495.376 -11299216.067 -19086973.749 10 0 60433 1800.00000 0 14810448.609 -11737949.856 -17157743.720 10 0 60433 2700.00000 0 16715935.730 -12268711.149 -14895905.104 10 0 60433 3600.00000 0 18296449.104 -12843388.455 -12345495.715 10 0 60433 4500.00000 0 19526055.368 -13409039.557 -9556069.791 10 0 60433 5400.00000 0 20391245.646 -13910264.240 -6581734.525 10 0 60433 6300.00000 0 20891279.899 -14291690.084 -3480104.429 10 0 60433 7200.00000 0 21038013.633 -14500467.200 -311193.448 10 0 60433 8100.00000 0 20855216.535 -14488668.001 2863734.398 10 0 60433 9000.00000 0 20377413.030 -14215492.090 5983334.610 10 0 60433 9900.00000 0 19648294.348 -13649184.791 8987350.607 10 0 60433 10800.00000 0 18718768.891 -12768589.722 11817759.726 10 0 60433 11700.00000 0 17644732.015 -11564270.701 14419876.265 10 0 60433 12600.00000 0 16484647.706 -10039155.896 16743391.811 10 0 60433 13500.00000 0 15297042.017 -8208676.530 18743334.274 10 0 60433 14400.00000 0 14138011.655 -6100392.806 20380928.471 10 0 60433 15300.00000 0 13058850.480 -3753120.507 21624342.660 10 0 60433 16200.00000 0 12103891.960 -1215591.912 22449307.271 10 0 60433 17100.00000 0 11308657.036 1455296.394 22839594.065 10 0 60433 18000.00000 0 10698384.674 4196579.231 22787346.019 10 0 60433 18900.00000 0 10287007.022 6941578.139 22293250.657 10 0 60433 19800.00000 0 10076613.102 9622421.289 21366551.930 10 0 60433 20700.00000 0 10057425.117 12172625.447 20024898.519 10 0 60433 21600.00000 0 10208290.251 14529634.112 18294029.228 10 0 60433 22500.00000 0 10497669.312 16637206.809 16207299.215 10 0 60433 23400.00000 0 10885082.525 18447559.700 13805053.989 10 0 60433 24300.00000 0 11322952.958 19923167.241 11133861.363 10 0 60433 25200.00000 0 11758770.635 21038148.083 8245614.811 10 0 60433 26100.00000 0 12137485.898 21779175.420 5196524.893 10 0 60433 27000.00000 0 12404029.921 22145871.897 2046018.296 10 0 60433 27900.00000 0 12505854.005 22150671.143 -1144433.356 10 0 60433 28800.00000 0 12395377.751 21818150.956 -4312530.695 10 0 60433 29700.00000 0 12032239.583 21183866.203 -7396384.100 10 0 60433 30600.00000 0 11385251.361 20292731.424 -10335745.093 10 0 60433 31500.00000 0 10433971.479 19197022.847 -13073205.108 10 0 60433 32400.00000 0 9169827.506 17954086.244 -15555335.952 10 0 60433 33300.00000 0 7596739.070 16623849.695 -17733747.727 10 0 60433 34200.00000 0 5731213.625 15266248.661 -19566042.081 10 0 60433 35100.00000 0 3601910.643 13938674.036 -21016641.351 10 0 60433 36000.00000 0 1248692.801 12693552.310 -22057477.304 10 0 60433 36900.00000 0 -1278795.277 11576160.583 -22668526.507 10 0 60433 37800.00000 0 -3922960.197 10622768.321 -22838183.002 10 0 60433 38700.00000 0 -6620427.227 9859183.062 -22563462.521 10 0 60433 39600.00000 0 -9304450.619 9299759.540 -21850036.109 10 0 60433 40500.00000 0 -11907465.875 8946911.460 -20712094.394 10 0 60433 41400.00000 0 -14363677.754 8791143.755 -19172047.077 10 0 60433 42300.00000 0 -16611576.905 8811601.072 -17260065.229 10 0 60433 43200.00000 0 -18596281.745 8977106.689 -15013476.766 10 0 60433 44100.00000 0 -20271609.961 9247645.788 -12476028.003 10 0 60433 45000.00000 0 -21601795.657 9576228.808 -9697026.398 10 0 60433 45900.00000 0 -22562783.262 9911055.234 -6730381.557 10 0 60433 46800.00000 0 -23143046.934 10197886.169 -3633563.083 10 0 60433 47700.00000 0 -23343903.812 10382525.866 -466495.193 10 0 60433 48600.00000 0 -23179310.253 10413308.307 2709591.197 10 0 60433 49500.00000 0 -22675151.331 10243485.050 5833327.643 10 0 60433 50400.00000 0 -21868054.508 9833415.010 8844377.149 10 0 60433 51300.00000 0 -20803777.531 9152465.054 11684581.776 10 0 60433 52200.00000 0 -19535237.755 8180542.320 14299068.242 10 0 60433 53100.00000 0 -18120264.507 6909194.191 16637291.694 10 0 60433 54000.00000 0 -16619167.111 5342229.391 18653999.058 10 0 60433 54900.00000 0 -15092218.600 3495833.073 20310094.719 10 0 60433 55800.00000 0 -13597158.552 1398169.244 21573392.871 10 0 60433 56700.00000 0 -12186817.732 -911515.461 22419242.702 10 0 60433 57600.00000 0 -10906962.448 -3384252.327 22831014.547 10 0 60433 58500.00000 0 -9794447.902 -5963122.159 22800437.228 10 0 60433 59400.00000 0 -8875757.468 -8585367.558 22327779.153 10 0 60433 60300.00000 0 -8165989.367 -11184761.229 21421868.182 10 0 60433 61200.00000 0 -7668334.215 -13694134.391 20099947.966 10 0 60433 62100.00000 0 -7374066.701 -16047961.993 18387371.301 10 0 60433 63000.00000 0 -7263053.470 -18184898.170 16317134.068 10 0 60433 63900.00000 0 -7304757.563 -20050156.324 13929256.528 10 0 60433 64800.00000 0 -7459698.541 -21597633.770 11270021.996 10 0 60433 65700.00000 0 -7681307.667 -22791690.749 8391086.172 10 0 60433 66600.00000 0 -7918100.053 -23608507.407 5348473.637 10 0 60433 67500.00000 0 -8116071.342 -24036959.882 2201480.933 10 0 60433 68400.00000 0 -8221216.096 -24078976.837 -988491.776 10 0 60433 69300.00000 0 -8182059.078 -23749360.087 -4159156.253 10 0 60433 70200.00000 0 -7952089.523 -23075076.184 -7248573.372 10 0 60433 71100.00000 0 -7491992.239 -22094048.911 -10196385.475 10 0 60433 72000.00000 0 -6771578.100 -20853504.484 -12945017.395 10 0 60433 72900.00000 0 -5771329.484 -19407940.872 -15440820.388 10 0 60433 73800.00000 0 -4483493.124 -17816808.873 -17635134.643 10 0 60433 74700.00000 0 -2912672.677 -16142005.000 -19485248.128 10 0 60433 75600.00000 0 -1075895.225 -14445283.925 -20955232.213 10 0 60433 76500.00000 0 997851.240 -12785701.113 -22016637.595 10 0 60433 77400.00000 0 3268589.431 -11217194.351 -22649037.419 10 0 60433 78300.00000 0 5686791.904 -9786406.036 -22840408.076 10 0 60433 79200.00000 0 8195226.459 -8530837.065 -22587341.756 10 0 60433 80100.00000 0 10731129.646 -7477408.325 -21895088.416 10 0 60433 81000.00000 0 13228616.940 -6641487.901 -20777428.265 10 0 60433 81900.00000 0 15621228.768 -6026422.016 -19256379.153 10 0 60433 82800.00000 0 17844506.480 -5623586.317 -17361746.297 10 0 60433 83700.00000 0 19838491.771 -5412952.171 -15130524.625 10 0 60433 84600.00000 0 21550046.791 -5364141.309 -12606166.452 10 0 60433 85500.00000 0 22934900.132 -5437921.946 -9837729.613 99